Location: Newark
(30.1000°N, 109.4667°E)
Time: 11:22:07
(UTC+00:00)

Vanguard 1 Rocket - Pass Details

Date: 24 February 2020
Orbit: 650 x 4226 km, 34.3° (Epoch: 06 April)

Event Time Altitude Azimuth Distance (km) Brightness Sun altitude
Rises 14:12:45 0° 206° (SSW) 8,013 12.3 -46.9°
Reaches altitude 10° 14:20:34 10° 194° (SSW) 6,466 11.6 -48.5°
Enters shadow 14:25:09 16° 184° (S) 5,559 11.2 -49.4°
